Location: Atherton
(17.2661°S, 145.4859°E)
Time: 18:11:02
(UTC+10:00)

ACS3 Solar Sail - Pass Details

Date: 29 May 2025
Orbit: 920 x 1019 km, 97.5° (Epoch: 20 June)

Event Time Altitude Azimuth Distance (km) Brightness Sun altitude
Rises 04:17:06 0° 48° (NE) 3,566 5.6 -33.2°
Reaches altitude 10° 04:20:16 10° 66° (ENE) 2,642 4.9 -32.5°
Maximum altitude 04:24:12 19° 108° (ESE) 2,111 4.1 -31.6°
Drops below altitude 10° 04:28:12 10° 150° (SSE) 2,697 4.2 -30.6°
Sets 04:31:27 0° 167° (SSE) 3,669 4.8 -29.9°
